This demonstration page uses our WeatherBlox Daily Observations layout. Learn more.

Left ArrowRight Arrow

41.12389, -100.76542

Hourly Observations for February 27, 2015

Temp ( °F °C ) Dew Point ( °F °C ) Humidity (%) Winds ( mph kmh ) Pressure ( in mb ) Visibility ( mi km ) Precip ( " mm )
12:53 am 00:53 Clear -1 -18.3 -7 -21.7 75 75 ENE 5 7 30.60 1036 10 16 0.00 0.00
1:53 am 01:53 Clear -4 -20 -9 -22.8 79 79 ENE 5 7 30.60 1036 10 16 0.00 0.00
2:53 am 02:53 Clear -3 -19.4 -8 -22.2 79 79 Calm 30.59 1036 10 16 0.00 0.00
3:53 am 03:53 Clear -3 -19.4 -8 -22.2 79 79 Calm 30.58 1035 10 16 0.00 0.00
4:53 am 04:53 Clear -4 -20 -9 -22.8 79 79 ENE 3 6 30.57 1035 10 16 0.00 0.00
5:53 am 05:53 Clear -4 -20 -9 -22.8 79 79 Calm 30.58 1036 10 16 0.00 0.00
6:53 am 06:53 Cloudy 0 -17.8 -5 -20.6 79 79 E 3 6 30.57 1035 10 16 0.00 0.00
7:53 am 07:53 Sunny 0 -17.8 -5 -20.6 79 79 Calm 30.58 1036 10 16 0.00 0.00
8:53 am 08:53 Mostly Cloudy 5 -15 -2 -18.9 72 72 SE 6 9 30.57 1035 10 16 0.00 0.00
9:53 am 09:53 Cloudy 10 -12.2 0 -17.8 63 63 SE 8 13 30.56 1035 10 16 0.00 0.00
10:53 am 10:53 Mostly Cloudy 14 -10 -1 -18.3 51 51 SSE 13 20 30.54 1034 10 16 0.00 0.00
11:53 am 11:53 Cloudy 17 -8.3 -1 -18.3 45 45 S 16 26 30.52 1034 10 16 0.00 0.00
12:53 pm 12:53 Cloudy 20 -6.7 -1 -18.3 40 40 SSE 14 22 30.48 1032 10 16 0.00 0.00
1:53 pm 13:53 Mostly Cloudy 24 -4.4 1 -17.2 36 36 SSW 16 26 30.42 1030 10 16 0.00 0.00
2:53 pm 14:53 Sunny 24 -4.4 1 -17.2 36 36 SSE 13 20 30.40 1030 10 16 0.00 0.00
3:53 pm 15:53 Mostly Sunny 24 -4.4 2 -16.7 38 38 SSW 17 28 30.39 1029 10 16 0.00 0.00
4:53 pm 16:53 Mostly Cloudy 21 -6.1 3 -16.1 45 45 S 13 20 30.39 1029 10 16 0.00 0.00
5:53 pm 17:53 Cloudy 20 -6.7 3 -16.1 48 48 S 17 28 30.39 1029 10 16 0.00 0.00
6:53 pm 18:53 Cloudy 19 -7.2 5 -15 54 54 S 12 19 30.39 1029 10 16 0.00 0.00
7:53 pm 19:53 Cloudy 19 -7.2 7 -13.9 59 59 S 14 22 30.39 1029 10 16 0.00 0.00
8:53 pm 20:53 Cloudy 18 -7.8 4 -15.6 54 54 S 14 22 30.38 1029 10 16 0.00 0.00
9:53 pm 21:53 Cloudy 17 -8.3 5 -15 59 59 S 13 20 30.37 1029 10 16 0.00 0.00
10:53 pm 22:53 Cloudy 17 -8.3 5 -15 59 59 S 12 19 30.37 1028 10 16 0.00 0.00
11:12 pm 23:12 Cloudy 18 -8 7 -14 62 62 S 15 24 30.39 1029 10 16 0.00 0.00
11:53 pm 23:53 Cloudy 16 -8.9 6 -14.4 65 65 S 16 26 30.34 1028 10 16 0.00 0.00

Powered by AerisWeather